Location: Bayou Vista
(29.6905°N, 91.2709°W)
Time: 07:59:31
(UTC+00:00)

Transit 4A - Pass Details

Date: 09 August 2024
Orbit: 867 x 976 km, 66.8° (Epoch: 08 September)

Event Time Altitude Azimuth Distance (km) Brightness Sun altitude
Rises 03:27:54 0° 328° (NNW) 3,578 12.1 -30.0°
Reaches altitude 10° 03:30:28 10° 323° (NW) 2,648 11.2 -30.4°
Maximum altitude 03:36:23 49° 250° (WSW) 1,207 8.5 -31.3°
Enters shadow 03:36:40 49° 241° (WSW) 1,213 8.5 -31.4°
